ELEKTRON 1 DEB, 750

Orbit data source: Space-Track

ELEKTRON 1 DEB, 750 is space debris in LEO originally from a launch on Thu, 30 Jan 1964 UTC launched from the Tyuratam Missile And Space Complex (TTMTR). Debris objects in space refer to the collection of defunct objects orbiting the Earth. Examples of debris include non-operational satellites, rocket bodies, and fragments generated from explosions, collisions, or faulty payload assembly.

Loading next visibility...
Identifier
750, 1964-006C
Orbit
LEO
Last TLE update
1 day ago
Origin
Manufacturer
OKB-1
Mission
Spacecraft
Bus & Motor
ADAPTER, Unknown motor
Mass
Unknown
Launch date (UTC)
1964-01-30 (61 years ago)
Launch vehicle
Unknown
Launch site
Tyuratam Missile And Space Complex (TTMTR)
Object type
Payload
Rocket body
Debris
Shape & HBR
Unknown
Radar Cross Section
Medium (>0.1 m² and <1 m²)

Expand to show TLE details & history

TLE from 1 day ago
0 ELEKTRON 1 DEB
1 00750U 64006C   25188.10715367  .00004481  00000-0  51963-3 0  9996
2 00750  60.7659 101.4870 1428375 258.7769  84.9817 12.37822696803725
Epoch: 2025-07-07T02:34Z
TLE epoch observation values (Epoch: 2025-07-07T02:34:18.077Z)
Latitude
0.00002°
Longitude
137.59045°
Altitude
1,579.329 km
Speed
7.052 km/s
True Right ascension
06h 45m 56s
True Declination
0° 00' 00"
Sunlit
Object was in daylight at epoch
Visualization orbit readout
Latitude
47.22886°
Longitude
-82.246°
Altitude
2,253.608 km
Speed
6.478 km/s
Apparent Right ascension
12h 21m 08s
Apparent Declination
31° 58' 49"
Sunlit
Object is in daylight
Visualization observer readout
Local Sidereal Time
18:37:05
Azimuth
297.69° NW
Elevation
17.134°
Doppler factor
1
Orbital elements
Apogee altitude
2,642.474 km
Perigee altitude
387.592 km
Semi-major axis
7,893.17 km
Eccentricity
0.14284
Inclination
60.7659°
RAAN
101.487°
Arg. of periapsis
258.7769°
True anomaly
Unknown
Mean anomaly
84.9817°
Eccentric anomaly
Unknown
Mean motion
3.09504 °/min
Orbital period
116.32 mins
BSTAR
0.00051963
Loading maneuver chart data...
Loading SW <> Apogee altitude chart data...

ELEKTRON 1 DEB Visibility forecast

Observer location: undefined°, undefined°

Span
Click to sort rows by Start time (UTC) header in descending order
Start Az.
Max El. time (UTC)
Max El. Az.
Max El.
End time (UTC)
End Az.
14 mins2025-07-08 06:31:40.847Z297.558° NW2025-07-08 06:38:40.847Z256.946° W23.798°2025-07-08 06:45:40.847Z208.915° SW
13 mins2025-07-08 17:28:40.847Z125.4° SE2025-07-08 17:34:40.847Z93.851° ESE17.216°2025-07-08 17:41:40.847Z63.583° ENE
25 mins2025-07-08 19:22:40.847Z195.351° SSW2025-07-08 19:32:40.847Z121.343° SE42.714°2025-07-08 19:47:40.847Z41.14° NE
27 mins2025-07-08 21:23:40.847Z249.277° W2025-07-08 21:35:40.847Z325.343° NNW39.175°2025-07-08 21:50:40.847Z38.568° NE
24 mins2025-07-08 23:29:40.847Z293.101° NW2025-07-08 23:41:40.847Z350.655° N28.948°2025-07-08 23:53:40.847Z48.139° ENE
23 mins2025-07-09 01:36:40.847Z320.214° NNW2025-07-09 01:48:40.847Z18.912° NNE31.142°2025-07-09 01:59:40.847Z81.49° E
24 mins2025-07-09 03:39:40.847Z322.948° NNW2025-07-09 03:53:40.847Z55.644° ENE43.549°2025-07-09 04:03:40.847Z130.77° SE
19 mins2025-07-09 05:42:40.847Z311.828° NW2025-07-09 05:53:40.847Z254.484° W32.115°2025-07-09 06:01:40.847Z191.682° SSW
|